TimeEDT,TemperatureF,Dew PointF,Humidity,Sea Level PressureIn,VisibilityMPH,Wind Direction,Wind SpeedMPH,Gust SpeedMPH,PrecipitationIn,Events,Conditions,WindDirDegrees,DateUTC
12:18 AM,55.9,47.8,74,30.16,10.0,SSE,9.2,-,N/A,,Clear,160,2013-10-09 04:18:00
12:38 AM,56.1,47.7,73,30.16,10.0,SSE,8.1,-,N/A,,Clear,160,2013-10-09 04:38:00
12:58 AM,55.9,47.7,74,30.15,10.0,SSE,10.4,-,N/A,,Clear,160,2013-10-09 04:58:00
1:18 AM,55.4,48.2,77,30.15,10.0,SSE,8.1,-,N/A,,Clear,160,2013-10-09 05:18:00
1:38 AM,55.4,48.2,77,30.15,10.0,South,9.2,-,N/A,,Clear,170,2013-10-09 05:38:00
1:58 AM,55.6,48.4,77,30.15,10.0,South,9.2,17.3,N/A,,Clear,180,2013-10-09 05:58:00
2:18 AM,56.3,47.8,73,30.16,10.0,South,10.4,19.6,N/A,,Clear,180,2013-10-09 06:18:00
2:38 AM,56.3,48.2,74,30.15,10.0,South,10.4,18.4,N/A,,Clear,180,2013-10-09 06:38:00
2:58 AM,56.3,48.4,75,30.15,10.0,South,10.4,16.1,N/A,,Clear,180,2013-10-09 06:58:00
3:18 AM,56.8,48.2,73,30.15,10.0,South,10.4,18.4,N/A,,Clear,180,2013-10-09 07:18:00
3:38 AM,56.8,48.2,73,30.15,10.0,South,10.4,17.3,N/A,,Clear,190,2013-10-09 07:38:00
3:58 AM,56.7,47.8,72,30.15,10.0,South,9.2,16.1,N/A,,Clear,190,2013-10-09 07:58:00
4:18 AM,56.5,47.8,73,30.15,10.0,South,10.4,16.1,N/A,,Clear,190,2013-10-09 08:18:00
4:38 AM,56.3,48.2,74,30.16,10.0,SSW,9.2,-,N/A,,Clear,200,2013-10-09 08:38:00
4:58 AM,55.8,48.0,75,30.16,10.0,SSW,10.4,-,N/A,,Clear,200,2013-10-09 08:58:00
5:18 AM,56.1,47.8,74,30.17,10.0,SSW,10.4,-,N/A,,Clear,200,2013-10-09 09:18:00
5:38 AM,56.3,47.7,73,30.17,10.0,SSW,9.2,-,N/A,,Clear,200,2013-10-09 09:38:00
5:58 AM,56.5,47.5,72,30.17,10.0,SSW,10.4,-,N/A,,Clear,200,2013-10-09 09:58:00
6:18 AM,56.7,47.8,72,30.18,10.0,SSW,10.4,-,N/A,,Clear,200,2013-10-09 10:18:00
6:38 AM,55.8,47.8,75,30.19,10.0,South,8.1,-,N/A,,Clear,190,2013-10-09 10:38:00
6:58 AM,54.9,47.8,77,30.19,10.0,South,10.4,-,N/A,,Clear,170,2013-10-09 10:58:00
7:18 AM,55.0,47.7,76,30.20,10.0,South,11.5,-,N/A,,Clear,180,2013-10-09 11:18:00
7:38 AM,55.6,47.3,74,30.20,10.0,South,10.4,-,N/A,,Clear,190,2013-10-09 11:38:00
7:58 AM,55.0,48.6,79,30.21,10.0,South,11.5,-,N/A,,Clear,170,2013-10-09 11:58:00
8:18 AM,55.4,47.8,76,30.21,10.0,South,9.2,-,N/A,,Clear,170,2013-10-09 12:18:00
8:38 AM,55.9,47.7,74,30.21,10.0,South,11.5,-,N/A,,Clear,180,2013-10-09 12:38:00
8:58 AM,56.5,48.2,74,30.21,10.0,South,10.4,-,N/A,,Clear,170,2013-10-09 12:58:00
9:19 AM,57.2,48.4,72,30.21,10.0,South,10.4,-,N/A,,Clear,170,2013-10-09 13:19:00
9:38 AM,57.6,48.2,71,30.22,10.0,South,9.2,-,N/A,,Clear,170,2013-10-09 13:38:00
9:58 AM,58.3,48.2,69,30.22,10.0,South,11.5,-,N/A,,Clear,170,2013-10-09 13:58:00
10:19 AM,59.2,48.6,68,30.22,10.0,South,8.1,-,N/A,,Clear,170,2013-10-09 14:19:00
10:38 AM,60.3,48.9,66,30.22,10.0,South,10.4,17.3,N/A,,Clear,180,2013-10-09 14:38:00
10:58 AM,61.3,49.6,65,30.22,10.0,South,9.2,-,N/A,,Clear,180,2013-10-09 14:58:00
11:19 AM,62.6,50.0,63,30.22,10.0,South,9.2,-,N/A,,Clear,190,2013-10-09 15:19:00
11:38 AM,63.5,50.2,62,30.22,10.0,SSW,8.1,-,N/A,,Clear,200,2013-10-09 15:38:00
11:58 AM,64.8,50.0,59,30.22,10.0,SSW,9.2,-,N/A,,Clear,200,2013-10-09 15:58:00
12:19 PM,65.8,50.2,57,30.22,10.0,SSW,3.5,-,N/A,,Clear,210,2013-10-09 16:19:00
12:38 PM,66.6,50.9,57,30.22,10.0,SSW,5.8,-,N/A,,Clear,210,2013-10-09 16:38:00
12:58 PM,67.8,50.9,55,30.22,10.0,SSW,6.9,-,N/A,,Clear,210,2013-10-09 16:58:00
1:19 PM,68.5,50.4,52,30.22,10.0,SSW,5.8,-,N/A,,Clear,200,2013-10-09 17:19:00
1:38 PM,67.5,51.4,56,30.21,10.0,West,5.8,-,N/A,,Clear,270,2013-10-09 17:38:00
1:59 PM,67.1,51.6,57,30.21,10.0,WSW,5.8,-,N/A,,Clear,240,2013-10-09 17:59:00
2:18 PM,67.1,52.0,58,30.21,10.0,SW,3.5,-,N/A,,Clear,230,2013-10-09 18:18:00
2:39 PM,67.8,51.8,56,30.20,10.0,WSW,9.2,-,N/A,,Clear,240,2013-10-09 18:39:00
2:58 PM,67.5,51.3,56,30.20,10.0,SW,9.2,-,N/A,,Clear,220,2013-10-09 18:58:00
3:18 PM,68.0,51.1,55,30.20,10.0,WSW,10.4,16.1,N/A,,Clear,250,2013-10-09 19:18:00
3:39 PM,68.9,51.6,54,30.20,10.0,WSW,6.9,-,N/A,,Clear,250,2013-10-09 19:39:00
3:58 PM,68.5,50.7,53,30.20,10.0,WSW,10.4,19.6,N/A,,Clear,240,2013-10-09 19:58:00
4:18 PM,68.0,50.7,54,30.20,10.0,WSW,8.1,17.3,N/A,,Clear,240,2013-10-09 20:18:00
4:39 PM,68.0,51.1,55,30.19,10.0,WSW,9.2,16.1,N/A,,Clear,250,2013-10-09 20:39:00
4:58 PM,68.0,51.1,55,30.19,10.0,WSW,6.9,-,N/A,,Clear,250,2013-10-09 20:58:00
5:18 PM,68.0,51.3,55,30.18,10.0,West,5.8,-,N/A,,Clear,260,2013-10-09 21:18:00
5:39 PM,67.3,52.0,58,30.19,10.0,West,5.8,-,N/A,,Clear,260,2013-10-09 21:39:00
5:58 PM,65.3,52.7,64,30.19,10.0,West,5.8,-,N/A,,Clear,270,2013-10-09 21:58:00
6:18 PM,64.4,52.3,65,30.19,10.0,West,6.9,-,N/A,,Clear,280,2013-10-09 22:18:00
6:38 PM,63.1,51.8,66,30.18,10.0,West,6.9,-,N/A,,Clear,270,2013-10-09 22:38:00
6:58 PM,61.9,52.0,70,30.18,10.0,West,5.8,-,N/A,,Clear,260,2013-10-09 22:58:00
7:19 PM,60.6,52.0,73,30.18,10.0,WSW,6.9,-,N/A,,Clear,240,2013-10-09 23:19:00
7:38 PM,60.3,52.7,76,30.18,10.0,WSW,5.8,-,N/A,,Clear,250,2013-10-09 23:38:00
7:58 PM,59.7,52.3,77,30.19,10.0,WSW,9.2,-,N/A,,Clear,240,2013-10-09 23:58:00
8:19 PM,60.1,52.2,75,30.19,10.0,WSW,8.1,-,N/A,,Clear,240,2013-10-10 00:19:00
8:38 PM,60.1,52.2,75,30.19,10.0,SW,8.1,-,N/A,,Clear,230,2013-10-10 00:38:00
8:58 PM,60.3,52.2,75,30.20,10.0,SW,6.9,-,N/A,,Clear,220,2013-10-10 00:58:00
9:19 PM,59.9,51.6,74,30.20,10.0,SSW,5.8,-,N/A,,Clear,200,2013-10-10 01:19:00
9:38 PM,59.7,51.3,74,30.19,10.0,SSW,6.9,-,N/A,,Clear,210,2013-10-10 01:38:00
9:58 PM,59.7,50.0,70,30.18,10.0,SSW,9.2,-,N/A,,Clear,200,2013-10-10 01:58:00
10:19 PM,59.9,49.6,69,30.19,10.0,SSW,6.9,-,N/A,,Clear,210,2013-10-10 02:19:00
10:39 PM,59.2,50.0,72,30.19,10.0,South,5.8,-,N/A,,Clear,190,2013-10-10 02:39:00
10:58 PM,58.1,50.4,75,30.19,10.0,SSW,5.8,-,N/A,,Clear,200,2013-10-10 02:58:00
11:19 PM,54.9,50.7,86,30.19,10.0,SSW,6.9,-,N/A,,Clear,200,2013-10-10 03:19:00
11:38 PM,54.1,50.2,86,30.19,10.0,South,5.8,-,N/A,,Clear,190,2013-10-10 03:38:00
11:58 PM,54.0,50.4,88,30.19,10.0,SSW,5.8,-,N/A,,Clear,210,2013-10-10 03:58:00